OK2ILA-3 Weather Reports


time (UTC)temp
C
wind
direction
speed
KPH
gust
KPH
rain 1hr
cm
rain 24hr
cm
rain mn
cm
humidity
%
barometer
mb
20260503175510 15 192 0.0 0.0 0.00 0.00 0.00 3 4608.2
20260503175507 15 192 0.0 0.0 0.00 0.00 0.00 3 4608.2
20260503174548 16 125 0.0 0.0 0.00 0.00 0.00 12 4608.2
20260503174500 16 125 0.0 0.0 0.00 0.00 0.00 12 4608.2
20260503173457 16 122 0.0 0.0 0.00 0.00 0.00 17 4608.2
20260503172445 16 253 0.0 0.0 0.00 0.00 0.00 51 3123.4
20260503171439 17 191 0.0 0.0 0.00 0.00 0.00 100 3123.4
20260503170432 17 253 0.0 0.0 0.00 0.00 0.00 51 176.0
20260503150314 20 140 3.2 0.0 0.00 0.00 0.00 52 6144.5
20260503140235 21 146 6.4 0.0 0.00 0.00 0.00 12 17.0
20260503131203 21 217 0.0 0.0 0.00 0.00 0.00 95 11.3
20260503130159 21 143 11.3 0.0 0.00 0.00 0.00 53 4352.0
20260503120127 21 265 0.0 0.0 0.00 0.00 0.00 100 105.6
20260503090124 21 156 6.4 0.0 0.00 0.00 0.00 66 0.7
20260503081101 19 341 4.8 0.0 0.00 0.00 0.00 3 17.6
20260503072035 17 147 4.8 0.0 0.00 0.00 0.00 3 5495.4
20260503071030 17 185 11.3 0.0 0.00 0.00 0.00 55 5495.4
20260503054952 13 234 0.0 0.0 0.00 0.00 0.00 12 4096.4
20260503051935 12 170 0.0 0.0 0.00 0.00 0.00 12 4352.0
20260503050933 12 201 3.2 0.0 0.00 0.00 0.00 26 4352.0
20260503044924 11 180 8.0 0.0 0.00 0.00 0.00 51 410.6
20260503043921 11 236 4.8 0.0 0.00 0.00 0.00 95
20260503042154 10 104 0.0 0.0 0.00 0.00 0.00 97
20260503041147 10 125 1.6 0.0 0.00 0.00 0.00 12
20260503040139 10 203 4.8 0.0 0.00 0.00 0.00 95
20260503035132 10 156 0.0 0.0 0.00 0.00 0.00 35
20260503034130 10 139 1.6 0.0 0.00 0.00 0.00 5
20260503033126 9 237 3.2 0.0 0.00 0.00 0.00 100 4096.0
20260503032119 9 130 0.0 0.0 0.00 0.00 0.00 100 4096.0
20260503031116 9 142 0.0 0.0 0.00 0.00 0.00 51 4352.0
20260503030108 9 165 6.4 0.0 0.00 0.00 0.00 100 4352.0
20260503025101 9 146 4.8 0.0 0.00 11.05 0.00 51 4352.0
20260503024053 9 158 0.0 0.0 0.00 0.00 0.00 100 4352.0
20260503021037 9 143 0.0 0.0 0.00 0.00 0.00 95 8.9
20260503020032 9 163 0.0 0.0 0.00 0.00 0.00 47 8.9
20260503015023 10 75 1.6 0.0 0.00 0.00 0.00 4 8.9
20260503014017 10 189 3.2 0.0 0.00 0.00 0.00 8 8.9
20260503013011 10 165 1.6 0.0 0.00 0.00 0.00 100 198.4
20260503012001 10 243 0.0 0.0 0.00 0.00 0.00 100
20260503010955 10 243 0.0 0.0 0.00 0.00 0.00 51 4352.0
20260503005949 10 129 0.0 0.0 0.00 0.00 0.00 51 0.7
20260503004941 10 194 0.0 0.0 0.00 0.00 0.00 2 0.7
20260503003936 10 195 0.0 0.0 0.00 0.00 0.00 77 4352.0
20260503002929 10 49 0.0 0.0 0.00 0.00 0.00 100 3123.2
20260502235901 10 49 0.0 0.0 0.00 0.00 0.00 82 4352.0
20260502233846 10 49 0.0 0.0 0.00 0.00 0.00 100 4352.0
20260502232840 11 49 0.0 0.0 0.00 0.00 0.00 8
20260502231836 11 49 0.0 0.0 0.00 0.00 0.00 100
20260502230828 11 49 0.0 0.0 0.00 0.00 0.00 3
20260502225820 11 49 0.0 0.0 0.00 0.00 0.00 95 53.2
20260502224812 11 49 0.0 0.0 0.00 0.00 0.00 4 851.2
20260502222800 11 49 0.0 0.0 0.00 0.00 0.00 3 851.2
20260502221756 11 49 0.0 0.0 0.00 0.00 0.00 37 851.2
20260502220753 11 49 0.0 0.0 0.00 0.00 0.00 100 851.2
20260502215746 11 49 0.0 0.0 0.00 0.00 0.00 3 851.2
20260502214740 11 49 0.0 0.0 0.00 0.00 0.00 26 3.5
20260502213735 11 49 0.0 0.0 0.00 0.00 0.00 3 3.5
20260502211724 12 49 0.0 0.0 0.00 0.00 0.00 39 896.2
20260502210721 12 49 0.0 0.0 0.00 0.00 0.00 12 896.2
20260502205714 12 49 0.0 0.0 0.00 0.00 0.00 100 896.2
20260502204709 12 49 0.0 0.0 0.00 0.00 0.00 12
20260502203706 12 49 0.0 0.0 0.00 0.00 0.00 14
20260502202702 12 49 0.0 0.0 0.00 0.00 0.00 100
20260502195701 13 49 0.0 0.0 0.00 0.00 0.00 2 56.0
20260502194154 13 49 0.0 0.0 0.00 0.00 0.00 93 4352.0
20260502191142 15 56 1.6 0.0 0.00 0.00 0.00 100 2560.0
20260502185635 15 52 0.0 0.0 0.00 0.00 0.00 12 2560.0
20260502184131 16 57 1.6 0.0 0.00 0.00 0.00 3 4096.0
20260502182622 16 61 3.2 0.0 0.00 0.00 0.00 26 4096.0